1506834000.26,32758,14.31,74144.0,0.39,-43.55,-43.81,0,*45
1506834001.45,32759,14.31,74146.0,0.39,-43.35,-43.75,0,*49
1506834002.64,32760,14.31,74146.5,0.39,-43.35,-43.75,0,*43
1506834003.83,32761,14.31,74148.3,0.39,-43.35,-43.75,0,*42
1506834005.02,32762,14.31,74148.0,0.39,-43.35,-43.75,0,*41
1506834006.21,32763,14.31,74146.0,0.39,-43.35,-43.75,0,*40
1506834007.45,32764,14.38,74148.3,0.37,-43.41,-43.81,0,*41
1506834008.66,32765,14.31,74144.0,0.39,-43.35,-43.81,0,*4D
1506834009.88,32766,14.31,74148.8,0.39,-43.29,-43.61,0,*4D
1506834011.1,32767,14.31,74142.5,0.39,-43.29,-43.61,0,*4C
1506834012.31,32768,14.31,74142.3,0.37,-43.15,-43.35,0,*43
1506834013.51,32769,14.38,74146.3,0.39,-42.89,-43.15,0,*4A
1506834014.75,32770,14.31,74144.5,0.39,-42.95,-43.29,0,*40
1506834015.98,32771,14.31,74144.3,0.39,-42.95,-43.15,0,*4E
1506834017.22,32772,14.31,74150.0,0.39,-42.57,-42.95,0,*4A
1506834018.47,32773,14.31,74146.5,0.41,-43.01,-43.09,0,*42
1506834019.7,32774,14.31,74150.8,0.41,-42.89,-43.21,0,*4E
1506834020.94,32775,14.31,74148.3,0.41,-43.21,-43.35,0,*49
1506834022.2,32776,14.31,74150.5,0.41,-43.21,-43.55,0,*4C
1506834023.44,32777,14.31,74152.0,0.41,-43.21,-43.35,0,*4B
1506834024.7,32778,14.31,74148.0,0.41,-43.29,-43.67,0,*4B
1506834025.97,32779,14.31,74146.5,0.41,-43.21,-43.67,0,*42
1506834027.18,32780,14.31,74146.0,0.41,-43.35,-43.75,0,*42
1506834028.41,32781,14.38,74140.0,0.41,-43.29,-43.75,0,*4E
1506834029.68,32782,14.31,74136.5,0.41,-43.09,-43.29,0,*46
1506834030.92,32783,14.31,74138.0,0.43,-42.83,-43.09,0,*44
1506834032.15,32784,14.31,74142.5,0.41,-42.83,-42.89,0,*48
1506834033.41,32785,14.31,74144.0,0.41,-42.83,-43.09,0,*40
1506834034.63,32786,14.31,74146.0,0.43,-43.09,-43.35,0,*4D
1506834035.88,32787,14.31,74148.5,0.41,-43.09,-43.35,0,*4E
1506834037.12,32788,14.31,74146.5,0.41,-43.01,-43.29,0,*44
1506834038.31,32789,14.31,74150.8,0.43,-42.89,-43.01,0,*4C
1506834039.53,32790,14.31,74148.5,0.43,-43.01,-43.21,0,*47
1506834040.77,32791,14.31,74146.8,0.41,-43.01,-43.21,0,*44
1506834042.01,32792,14.31,74144.8,0.43,-42.83,-43.09,0,*44
1506834043.23,32793,14.31,74144.8,0.43,-43.01,-43.21,0,*44
1506834044.46,32794,14.31,74152.5,0.43,-42.83,-43.21,0,*48
1506834045.67,32795,14.31,74150.8,0.45,-43.01,-43.15,0,*43
1506834046.88,32796,14.31,74150.3,0.43,-42.89,-43.09,0,*4A
1506834048.1,32797,14.31,74150.3,0.45,-43.15,-43.21,0,*43
1506834049.32,32798,14.31,74148.3,0.45,-43.01,-43.29,0,*41
1506834050.56,32799,14.38,74154.3,0.47,-43.15,-43.29,0,*47
1506834051.78,32800,14.31,74154.8,0.45,-43.21,-43.61,0,*41
1506834053.02,32801,14.38,74154.8,0.45,-43.29,-43.67,0,*4E
1506834054.27,32802,14.31,74148.8,0.45,-43.29,-43.67,0,*4D
1506834055.49,32803,14.31,74148.3,0.45,-43.21,-43.61,0,*42
1506834056.73,32804,14.31,74148.8,0.45,-43.29,-43.67,0,*4B
1506834057.95,32805,14.31,74152.3,0.45,-43.21,-43.61,0,*44
1506834059.19,32806,14.31,74154.5,0.47,-43.21,-43.49,0,*4F
1506834060.41,32807,14.38,74152.5,0.45,-43.21,-43.61,0,*46
1506834061.62,32808,14.38,74150.3,0.45,-43.21,-43.49,0,*43
1506834062.84,32809,14.31,74144.0,0.45,-43.21,-43.61,0,*48
1506834064.03,32810,14.31,74150.3,0.45,-43.15,-43.49,0,*4D
1506834065.23,32811,14.31,74150.0,0.45,-43.15,-43.49,0,*4C
1506834066.44,32812,14.31,74150.8,0.47,-43.15,-43.49,0,*4D
1506834067.66,32813,14.31,74150.5,0.45,-43.21,-43.61,0,*43
1506834068.88,32814,14.31,74148.5,0.45,-43.01,-43.21,0,*42
1506834070.07,32815,14.38,74150.3,0.45,-43.15,-43.49,0,*48
1506834071.27,32816,14.38,74148.0,0.45,-43.15,-43.49,0,*4B
1506834072.51,32817,14.31,74144.8,0.47,-43.29,-43.61,0,*4D
1506834073.73,32818,14.31,74146.5,0.45,-43.21,-43.49,0,*42
1506834074.97,32819,14.31,74146.0,0.45,-43.21,-43.29,0,*45
1506834076.19,32820,14.31,74148.8,0.45,-43.01,-43.21,0,*45
1506834077.43,32821,14.38,74150.5,0.47,-43.15,-43.29,0,*4B
1506834078.62,32822,14.38,74150.3,0.45,-43.15,-43.49,0,*4C
1506834079.85,32823,14.31,74150.5,0.45,-43.01,-43.29,0,*4E
1506834081.06,32824,14.38,74150.8,0.47,-43.15,-43.49,0,*48
1506834082.29,32825,14.31,74144.8,0.45,-43.01,-43.29,0,*48
1506834083.54,32826,14.38,74150.3,0.47,-42.95,-43.15,0,*4A
1506834084.78,32827,14.31,74148.0,0.47,-42.83,-43.01,0,*49
1506834086.02,32828,14.31,74148.0,0.47,-43.01,-43.21,0,*4F
1506834087.27,32829,14.31,74148.8,0.47,-42.83,-43.01,0,*47
1506834088.51,32830,14.31,74150.8,0.47,-43.01,-43.29,0,*4E
1506834089.75,32831,14.31,74144.8,0.47,-43.15,-43.29,0,*4A
1506834090.97,32832,14.31,74146.0,0.51,-43.15,-43.41,0,*40
1506834092.22,32833,14.38,74152.8,0.51,-43.09,-43.41,0,*4C
1506834093.46,32834,14.38,74150.8,0.51,-43.21,-43.61,0,*43
1506834094.68,32835,14.31,74150.3,0.51,-43.15,-43.61,0,*45
1506834095.92,32836,14.31,74150.0,0.51,-43.21,-43.61,0,*41
1506834097.11,32837,14.31,74146.0,0.53,-43.35,-43.75,0,*42
1506834098.32,32838,14.38,74152.0,0.51,-43.15,-43.41,0,*4A
1506834099.58,32839,14.31,74144.3,0.51,-42.95,-43.41,0,*42
1506834100.85,32840,14.38,74150.0,0.51,-42.95,-43.21,0,*4A
1506834102.06,32841,14.31,74146.8,0.53,-42.89,-43.09,0,*4E
1506834103.33,32842,14.31,74148.0,0.51,-43.09,-43.21,0,*4C
1506834104.52,32843,14.31,74148.5,0.53,-42.89,-43.15,0,*41
1506834105.73,32844,14.38,74148.3,0.53,-43.09,-43.15,0,*4F
1506834106.95,32845,14.31,74144.5,0.53,-43.09,-43.41,0,*4F
1506834108.14,32846,14.31,74150.3,0.53,-43.15,-43.61,0,*43
1506834109.38,32847,14.38,74150.0,0.51,-43.15,-43.55,0,*47
1506834110.59,32848,14.31,74148.3,0.53,-43.21,-43.75,0,*4F
1506834111.82,32849,14.31,74148.8,0.53,-43.21,-43.81,0,*45
1506834113.05,32850,14.38,74148.5,0.51,-43.35,-43.81,0,*4A
1506834114.29,32851,14.31,74144.5,0.51,-43.41,-43.81,0,*48
1506834115.48,32852,14.31,74144.8,0.53,-43.35,-43.75,0,*41
1506834116.69,32853,14.31,74144.5,0.53,-43.41,-43.81,0,*48
1506834117.89,32854,14.31,74144.3,0.53,-43.35,-43.81,0,*4C
1506834119.11,32855,14.31,74148.0,0.51,-43.41,-43.95,0,*49
1506834120.34,32856,14.31,74146.8,0.51,-43.41,-43.95,0,*4A
1506834121.56,32857,14.31,74144.3,0.51,-43.61,-43.95,0,*49
1506834122.8,32858,14.38,74148.5,0.51,-43.41,-43.81,0,*41
1506834123.99,32859,14.38,74150.0,0.53,-43.41,-43.95,0,*47
1506834125.23,32860,14.31,74144.5,0.51,-43.41,-43.81,0,*4A
1506834126.47,32861,14.38,74148.3,0.51,-43.35,-43.81,0,*48
1506834127.71,32862,14.38,74150.3,0.51,-43.55,-43.95,0,*48
1506834128.93,32863,14.38,74146.5,0.51,-43.35,-43.75,0,*41
1506834130.16,32864,14.31,74146.8,0.51,-43.35,-43.81,0,*4D
1506834131.38,32865,14.38,74148.3,0.51,-43.41,-43.95,0,*4A
1506834132.62,32866,14.31,74148.8,0.51,-43.41,-43.81,0,*4C
1506834133.89,32867,14.31,74148.8,0.51,-43.55,-44.13,0,*44
1506834135.13,32868,14.38,74152.0,0.47,-43.67,-44.07,0,*48
1506834136.33,32869,14.31,74152.3,0.45,-43.61,-44.07,0,*4D
1506834137.57,32870,14.38,74154.5,0.47,-43.61,-44.01,0,*41
1506834138.82,32871,14.38,74154.5,0.47,-43.61,-44.01,0,*40
1506834140.06,32872,14.31,74148.5,0.47,-43.49,-44.01,0,*49
1506834141.28,32873,14.38,74152.3,0.51,-43.41,-43.95,0,*4D
1506834142.51,32874,14.38,74154.5,0.51,-43.41,-43.95,0,*4A
1506834143.77,32875,14.38,74148.0,0.51,-43.55,-43.81,0,*4B
1506834145.01,32876,14.38,74152.0,0.51,-43.55,-43.95,0,*4D
1506834146.23,32877,14.38,74150.8,0.47,-43.61,-43.87,0,*4F
1506834147.5,32878,14.31,74150.8,0.47,-43.67,-44.01,0,*4F
1506834148.72,32879,14.31,74150.5,0.47,-43.61,-44.07,0,*4E
1506834149.96,32880,14.31,74150.0,0.47,-43.41,-44.01,0,*4C
1506834151.18,32881,14.38,74152.0,0.45,-43.49,-44.01,0,*47
1506834152.42,32882,14.38,74148.8,0.47,-43.49,-44.01,0,*46
1506834153.67,32883,14.38,74150.0,0.47,-43.41,-43.67,0,*48
1506834154.91,32884,14.38,74150.5,0.47,-43.21,-43.61,0,*4F
1506834156.13,32885,14.38,74148.5,0.45,-43.15,-43.29,0,*47
1506834157.35,32886,14.38,74148.8,0.45,-43.01,-43.21,0,*49
1506834158.59,32887,14.38,74150.0,0.47,-42.83,-43.15,0,*46
1506834159.83,32888,14.38,74154.0,0.51,-42.57,-42.89,0,*43
1506834161.1,32889,14.38,74154.8,0.51,-42.95,-43.21,0,*4F
1506834162.35,32890,14.38,74154.5,0.51,-42.95,-43.41,0,*41
1506834163.6,32891,14.38,74156.0,0.51,-42.75,-42.95,0,*46
1506834164.82,32892,14.38,74152.0,0.53,-42.75,-43.09,0,*43
1506834166.06,32893,14.38,74154.3,0.51,-42.95,-43.15,0,*43
1506834167.33,32894,14.38,74152.0,0.51,-42.95,-43.21,0,*43
1506834168.55,32895,14.31,74152.3,0.53,-42.89,-43.21,0,*4D
1506834169.73,32896,14.38,74154.3,0.53,-42.89,-43.15,0,*49
1506834170.97,32897,14.31,74150.5,0.53,-43.09,-43.21,0,*46
1506834172.19,32898,14.31,74150.3,0.55,-43.01,-43.15,0,*40
1506834173.46,32899,14.38,74150.5,0.55,-43.09,-43.55,0,*4D
1506834174.67,32900,14.38,74154.0,0.53,-43.21,-43.75,0,*42
1506834175.86,32901,14.38,74148.5,0.53,-43.41,-43.95,0,*4B
1506834177.08,32902,14.38,74152.0,0.53,-43.61,-44.13,0,*43
1506834178.29,32903,14.38,74150.5,0.53,-43.95,-44.13,0,*49
1506834179.5,32904,14.38,74148.0,0.53,-43.75,-44.01,0,*43
1506834180.72,32905,14.38,74150.5,0.53,-43.55,-43.95,0,*4A
1506834181.95,32906,14.38,74150.5,0.51,-43.35,-43.81,0,*48
1506834183.16,32907,14.38,74148.0,0.53,-43.21,-43.75,0,*45
1506834184.36,32908,14.38,74150.0,0.53,-43.35,-43.81,0,*44
1506834185.6,32909,14.31,74144.0,0.51,-43.35,-43.81,0,*47
1506834186.83,32910,14.38,74154.5,0.53,-43.21,-43.55,0,*41
1506834188.02,32911,14.38,74152.8,0.53,-43.15,-43.75,0,*45
1506834189.23,32912,14.38,74148.5,0.53,-43.21,-43.61,0,*44
1506834190.45,32913,14.38,74152.5,0.55,-43.01,-43.35,0,*40
1506834191.72,32914,14.38,74148.8,0.51,-43.09,-43.21,0,*4E
1506834192.94,32915,14.38,74150.3,0.53,-43.09,-43.15,0,*4A
1506834194.15,32916,14.38,74150.3,0.53,-43.09,-43.15,0,*49
1506834195.38,32917,14.38,74146.5,0.55,-43.01,-43.15,0,*46
1506834196.59,32918,14.38,74146.3,0.55,-42.89,-43.35,0,*4A
1506834197.82,32919,14.38,74144.3,0.55,-43.01,-43.35,0,*4A
1506834199.01,32920,14.38,74146.0,0.57,-43.01,-43.15,0,*40
1506834200.23,32921,14.38,74144.3,0.55,-43.01,-43.15,0,*43
1506834201.42,32922,14.38,74142.8,0.57,-42.89,-43.15,0,*43
1506834202.64,32923,14.38,74148.8,0.57,-43.01,-43.09,0,*4E
1506834203.91,32924,14.38,74146.8,0.55,-42.83,-43.09,0,*40
1506834205.1,32925,14.38,74144.5,0.57,-43.01,-43.15,0,*45
1506834206.32,32926,14.38,74140.5,0.57,-43.09,-43.49,0,*47
1506834207.53,32927,14.38,74140.0,0.57,-43.09,-43.49,0,*46
1506834208.75,32928,14.38,74144.3,0.57,-42.89,-43.09,0,*44
1506834210.02,32929,14.38,74140.3,0.59,-42.95,-43.09,0,*46
1506834211.23,32930,14.38,74140.8,0.57,-43.09,-43.49,0,*40
1506834212.44,32931,14.38,74142.8,0.61,-43.01,-43.41,0,*44
1506834213.66,32932,14.38,74142.8,0.61,-42.95,-43.41,0,*4B
1506834214.93,32933,14.38,74140.8,0.59,-43.09,-43.67,0,*41
1506834216.2,32934,14.38,74140.0,0.59,-43.29,-43.67,0,*44
1506834217.46,32935,14.38,74140.3,0.59,-43.29,-43.81,0,*4D
1506834218.71,32936,14.38,74140.0,0.59,-43.29,-43.81,0,*4E
1506834219.93,32937,14.38,74146.5,0.61,-43.21,-43.61,0,*42
1506834221.16,32938,14.38,74144.5,0.59,-43.49,-43.81,0,*46
1506834222.4,32939,14.38,74148.5,0.59,-43.49,-44.01,0,*48
1506834223.62,32940,14.38,74142.8,0.61,-43.49,-44.01,0,*4D
1506834224.8,32941,14.38,74144.3,0.61,-43.35,-43.87,0,*4E
1506834226.04,32942,14.38,74146.3,0.59,-43.49,-44.01,0,*44
1506834227.27,32943,14.38,74144.0,0.59,-43.41,-43.81,0,*42
1506834228.51,32944,14.38,74146.3,0.59,-43.49,-44.01,0,*42
1506834229.75,32945,14.38,74152.8,0.59,-43.41,-44.01,0,*4B
1506834230.99,32946,14.38,74144.5,0.59,-43.41,-44.01,0,*48
1506834232.23,32947,14.38,74146.5,0.59,-43.49,-44.01,0,*41
1506834233.44,32948,14.38,74144.5,0.59,-43.49,-43.87,0,*47
1506834234.68,32949,14.38,74146.3,0.59,-43.41,-44.01,0,*47
1506834235.89,32950,14.38,74146.3,0.59,-43.49,-43.87,0,*4E
1506834237.13,32951,14.38,74150.0,0.59,-43.61,-44.01,0,*4C
1506834238.34,32952,14.38,74150.3,0.59,-43.49,-43.87,0,*4C
1506834239.56,32953,14.38,74146.8,0.59,-43.49,-43.87,0,*4D
1506834240.77,32954,14.38,74144.5,0.59,-43.49,-43.87,0,*4A
1506834241.98,32955,14.38,74146.3,0.59,-43.61,-43.87,0,*41
1506834243.2,32956,14.38,74148.5,0.59,-43.61,-43.87,0,*42
1506834244.41,32957,14.38,74146.5,0.57,-43.55,-44.07,0,*45
1506834245.65,32958,14.38,74144.5,0.59,-43.49,-44.01,0,*4F
1506834246.85,32959,14.38,74138.3,0.57,-43.35,-43.81,0,*44
1506834248.06,32960,14.38,74140.8,0.59,-43.41,-43.87,0,*45
1506834249.27,32961,14.38,74142.3,0.59,-43.41,-43.87,0,*44
1506834250.49,32962,14.38,74142.5,0.59,-43.41,-43.87,0,*47
1506834251.67,32963,14.38,74144.8,0.57,-43.35,-43.87,0,*4B
1506834252.85,32964,14.38,74146.8,0.57,-43.35,-43.87,0,*4C
1506834254.08,32965,14.38,74148.5,0.59,-43.41,-43.81,0,*46
1506834255.33,32966,14.38,74142.8,0.59,-43.41,-43.67,0,*4D
1506834256.54,32967,14.38,74144.8,0.59,-43.41,-43.87,0,*42
1506834257.8,32968,14.38,74144.8,0.59,-43.67,-44.01,0,*40
1506834259.04,32969,14.38,74148.8,0.59,-43.41,-44.01,0,*45
1506834260.28,32970,14.38,74146.5,0.59,-43.61,-44.01,0,*4F
1506834261.5,32971,14.38,74146.8,0.59,-43.41,-43.87,0,*45
1506834262.71,32972,14.38,74146.5,0.59,-43.41,-43.87,0,*46
1506834263.92,32973,14.38,74146.3,0.57,-43.55,-44.07,0,*43
1506834265.13,32974,14.38,74148.0,0.59,-43.49,-43.87,0,*48
1506834266.34,32975,14.38,74146.0,0.59,-43.49,-43.87,0,*49
1506834267.52,32976,14.38,74144.8,0.57,-43.35,-43.87,0,*4F
1506834268.71,32977,14.38,74146.3,0.57,-43.49,-43.87,0,*45
1506834269.95,32978,14.38,74146.0,0.55,-43.29,-43.95,0,*4D
1506834271.16,32979,14.38,74142.0,0.59,-43.49,-43.87,0,*45
1506834272.42,32980,14.38,74146.3,0.59,-43.29,-43.81,0,*43
1506834273.65,32981,14.38,74146.3,0.59,-43.49,-43.81,0,*44
1506834274.84,32982,14.38,74140.5,0.61,-43.35,-43.87,0,*41
1506834276.08,32983,14.38,74150.0,0.59,-43.41,-43.67,0,*46
1506834277.29,32984,14.38,74146.3,0.57,-43.55,-43.87,0,*44
1506834278.5,32985,14.38,74146.0,0.57,-43.55,-43.95,0,*46
1506834279.76,32986,14.38,74146.5,0.59,-43.29,-43.81,0,*45
1506834281.0,32987,14.38,74144.3,0.55,-43.67,-43.95,0,*47
1506834282.19,32988,14.38,74146.0,0.57,-43.49,-43.87,0,*45
1506834283.37,32989,14.38,74146.8,0.57,-43.49,-43.87,0,*44
1506834284.59,32990,14.38,74144.8,0.55,-43.49,-43.87,0,*4E
1506834285.83,32991,14.38,74140.3,0.57,-43.29,-43.67,0,*45
1506834287.09,32992,14.38,74140.5,0.59,-43.29,-43.81,0,*40
1506834288.3,32993,14.38,74142.5,0.59,-43.49,-43.87,0,*41
1506834289.54,32994,14.38,74140.8,0.59,-43.49,-44.01,0,*4F
1506834290.77,32995,14.38,74142.3,0.59,-43.41,-44.01,0,*46
1506834292.01,32996,14.38,74146.5,0.59,-43.49,-44.01,0,*4D
1506834293.23,32997,14.38,74140.8,0.59,-43.41,-43.87,0,*4D
1506834294.46,32998,14.38,74142.3,0.59,-43.49,-44.01,0,*43
1506834295.68,32999,14.38,74142.8,0.59,-43.49,-43.87,0,*4B
1506834296.91,33000,14.38,74146.8,0.59,-43.49,-43.81,0,*45
1506834298.15,33001,14.38,74140.0,0.59,-43.41,-44.01,0,*43
1506834299.36,33002,14.38,74146.8,0.59,-43.49,-43.87,0,*41
1506834300.62,33003,14.38,74144.3,0.59,-43.29,-44.01,0,*4F
1506834301.86,33004,14.38,74144.8,0.59,-43.49,-44.01,0,*4E
1506834303.1,33005,14.38,74150.0,0.59,-43.41,-43.81,0,*48
1506834304.3,33006,14.38,74150.3,0.61,-43.35,-43.81,0,*43
1506834305.52,33007,14.38,74144.0,0.59,-43.41,-43.87,0,*4C
1506834306.75,33008,14.38,74146.3,0.59,-43.49,-44.01,0,*42
1506834307.99,33009,14.38,74148.3,0.59,-43.49,-44.01,0,*43
1506834309.23,33010,14.38,74152.8,0.59,-43.61,-44.01,0,*41
1506834310.47,33011,14.38,74152.0,0.59,-43.67,-44.07,0,*40
1506834311.71,33012,14.38,74150.0,0.61,-43.55,-44.01,0,*4F
1506834312.92,33013,14.38,74148.5,0.59,-43.49,-43.87,0,*41
1506834314.13,33014,14.38,74144.3,0.59,-43.41,-43.87,0,*4E
1506834315.37,33015,14.38,74140.3,0.59,-43.29,-43.87,0,*41
1506834316.61,33016,14.38,74142.8,0.59,-43.49,-44.01,0,*4D
1506834317.82,33017,14.38,74146.3,0.57,-43.55,-43.75,0,*4B
1506834319.03,33018,14.38,74148.8,0.57,-43.29,-43.75,0,*4F
1506834320.24,33019,14.38,74154.8,0.61,-43.21,-43.75,0,*43
1506834321.5,33020,14.38,74154.5,0.59,-43.21,-43.67,0,*41
1506834322.73,33021,14.38,74150.5,0.59,-43.01,-43.49,0,*4E
1506834323.95,33022,14.38,74154.0,0.59,-43.01,-43.49,0,*4D
1506834325.17,33023,14.38,74152.8,0.61,-42.95,-43.41,0,*43
1506834326.37,33024,14.38,74154.3,0.61,-43.01,-43.49,0,*40
1506834327.58,33025,14.38,74154.8,0.61,-43.21,-43.61,0,*49
1506834328.78,33026,14.38,74154.0,0.61,-43.01,-43.35,0,*49
1506834330.01,33027,14.38,74154.5,0.59,-43.01,-43.41,0,*40
1506834331.23,33028,14.38,74152.3,0.61,-42.95,-43.35,0,*4B
1506834332.46,33029,14.38,74148.0,0.61,-42.95,-43.35,0,*4A
1506834333.67,33030,14.38,74150.3,0.63,-43.15,-43.41,0,*4A
1506834334.92,33031,14.38,74154.5,0.63,-42.95,-43.41,0,*42
1506834336.14,33032,14.38,74150.0,0.63,-43.01,-43.61,0,*4F
1506834337.39,33033,14.38,74148.5,0.63,-43.01,-43.55,0,*49
1506834338.58,33034,14.38,74150.0,0.65,-42.89,-43.49,0,*44
1506834339.81,33035,14.38,74150.5,0.63,-43.01,-43.41,0,*4A
1506834341.02,33036,14.38,74148.0,0.63,-43.15,-43.75,0,*4B
1506834342.23,33037,14.38,74146.8,0.65,-43.15,-43.67,0,*4F
1506834343.45,33038,14.38,74150.5,0.65,-43.15,-43.67,0,*40
1506834344.64,33039,14.38,74148.8,0.65,-42.89,-43.35,0,*42
1506834345.83,33040,14.38,74152.5,0.65,-42.89,-43.35,0,*4C
1506834347.04,33041,14.38,74150.3,0.67,-42.89,-43.15,0,*4D
1506834348.26,33042,14.38,74148.5,0.67,-42.89,-43.49,0,*47
1506834349.5,33043,14.38,74150.8,0.67,-42.89,-43.29,0,*40
1506834350.77,33044,14.38,74148.3,0.67,-42.95,-43.29,0,*4A
1506834352.01,33045,14.38,74148.5,0.69,-42.83,-43.21,0,*4A
1506834353.25,33046,14.38,74154.3,0.67,-42.89,-43.29,0,*45
1506834354.47,33047,14.38,74150.3,0.67,-42.89,-43.35,0,*49
1506834355.69,33048,14.38,74154.3,0.69,-42.95,-43.49,0,*4E
1506834356.91,33049,14.38,74146.5,0.69,-43.09,-43.49,0,*4B
1506834358.11,33050,14.38,74150.3,0.69,-43.01,-43.49,0,*4B
1506834359.31,33051,14.38,74150.5,0.69,-43.01,-43.49,0,*4A
1506834360.55,33052,14.38,74148.0,0.67,-43.35,-43.67,0,*4C
1506834361.78,33053,14.38,74144.8,0.69,-43.29,-43.81,0,*46
1506834363.0,33054,14.38,74148.3,0.69,-43.41,-43.81,0,*4F
1506834364.24,33055,14.38,74148.3,0.69,-43.21,-43.67,0,*40
1506834365.47,33056,14.38,74150.0,0.69,-43.29,-43.81,0,*43
1506834366.7,33057,14.38,74152.8,0.69,-43.29,-43.81,0,*42
1506834367.92,33058,14.38,74158.5,0.69,-43.21,-43.61,0,*4B
1506834369.11,33059,14.38,74154.8,0.69,-43.01,-43.49,0,*42
1506834370.31,33060,14.38,74154.0,0.73,-43.01,-43.41,0,*4B
1506834371.51,33061,14.38,74154.0,0.73,-43.01,-43.35,0,*49
1506834372.75,33062,14.38,74152.3,0.69,-43.09,-43.81,0,*46
1506834373.99,33063,14.38,74152.5,0.69,-43.09,-43.67,0,*4F
1506834375.2,33064,14.38,74152.0,0.73,-43.15,-43.55,0,*4F
1506834376.39,33065,14.38,74158.8,0.73,-43.15,-43.61,0,*49
1506834377.64,33066,14.38,74158.3,0.77,-43.09,-43.55,0,*44
1506834378.9,33067,14.38,74156.5,0.77,-43.09,-43.55,0,*45
1506834380.1,33068,14.38,74152.5,0.77,-43.15,-43.61,0,*40
1506834381.35,33069,14.38,74150.3,0.77,-43.29,-43.67,0,*48
1506834382.54,33070,14.38,74154.8,0.73,-43.35,-43.75,0,*4A
1506834383.79,33071,14.38,74156.0,0.77,-43.09,-43.55,0,*42
1506834384.98,33072,14.38,74156.5,0.73,-43.15,-43.61,0,*4F
1506834386.19,33073,14.38,74158.0,0.73,-43.21,-43.61,0,*49
1506834387.4,33074,14.38,74158.8,0.73,-43.15,-43.55,0,*4E
1506834388.6,33075,14.38,74158.0,0.77,-43.15,-43.75,0,*49
1506834389.8,33076,14.38,74154.8,0.73,-43.21,-43.75,0,*49
1506834390.99,33077,14.38,74152.8,0.73,-43.15,-43.61,0,*4A
1506834392.18,33078,14.38,74154.8,0.73,-43.15,-43.61,0,*45
1506834393.41,33079,14.38,74150.5,0.77,-42.95,-43.49,0,*43
1506834394.64,33080,14.38,74156.0,0.77,-43.09,-43.35,0,*4A
1506834395.87,33081,14.38,74148.3,0.77,-42.95,-43.49,0,*44
1506834397.09,33082,14.38,74154.3,0.77,-43.15,-43.55,0,*43
1506834398.35,33083,14.38,74150.5,0.77,-43.09,-43.55,0,*4F
1506834399.58,33084,14.38,74152.8,0.77,-43.09,-43.35,0,*4E
1506834400.81,33085,14.38,74154.5,0.77,-42.95,-43.49,0,*40
1506834402.07,33086,14.38,74156.5,0.77,-43.09,-43.67,0,*4B
1506834403.29,33087,14.38,74154.5,0.77,-43.35,-43.67,0,*45
1506834404.54,33088,14.38,74158.0,0.77,-43.29,-43.55,0,*46
1506834405.77,33089,14.38,74156.3,0.77,-43.35,-43.67,0,*4B
1506834406.98,33090,14.38,74156.8,0.73,-43.21,-43.61,0,*44
1506834408.23,33091,14.38,74154.0,0.77,-43.29,-43.67,0,*4F
1506834409.49,33092,14.38,74152.3,0.77,-43.29,-43.67,0,*4C
1506834410.74,33093,14.38,74156.3,0.77,-43.29,-43.67,0,*4D
1506834411.96,33094,14.38,74162.5,0.79,-43.35,-43.75,0,*4A
1506834413.21,33095,14.38,74156.5,0.79,-43.29,-43.75,0,*46
1506834414.47,33096,14.38,74158.5,0.77,-43.29,-43.67,0,*48
1506834415.72,33097,14.38,74156.3,0.79,-43.15,-43.55,0,*49
1506834416.97,33098,14.38,74156.8,0.79,-43.15,-43.55,0,*46
1506834418.25,33099,14.38,74158.5,0.79,-43.29,-43.67,0,*49
1506834419.47,33100,14.38,74160.0,0.79,-43.35,-43.75,0,*46
1506834420.7,33101,14.38,74158.3,0.79,-43.35,-43.75,0,*47
1506834421.95,33102,14.38,74160.5,0.79,-43.29,-43.75,0,*49
1506834423.21,33103,14.38,74158.8,0.81,-43.29,-43.67,0,*4C
1506834424.46,33104,14.38,74158.0,0.79,-43.15,-43.67,0,*43
1506834425.74,33105,14.38,74156.5,0.79,-43.29,-43.67,0,*4D
1506834427.02,33106,14.38,74152.8,0.79,-43.29,-43.67,0,*4E
1506834428.3,33107,14.38,74148.8,0.79,-43.29,-43.67,0,*4F
1506834429.55,33108,14.38,74148.3,0.79,-43.15,-43.67,0,*4F
1506834430.83,33109,14.38,74150.0,0.79,-43.29,-43.67,0,*41
1506834432.08,33110,14.38,74150.8,0.79,-43.15,-43.55,0,*47
1506834433.36,33111,14.38,74148.8,0.79,-43.09,-43.55,0,*4B
1506834434.57,33112,14.38,74148.5,0.81,-43.01,-43.49,0,*4A
1506834435.85,33113,14.38,74146.8,0.79,-43.29,-43.67,0,*4A
1506834437.11,33114,14.38,74150.0,0.81,-43.29,-43.67,0,*4A
1506834438.34,33115,14.38,74150.8,0.79,-43.49,-43.75,0,*49
1506834439.59,33116,14.38,74144.8,0.81,-43.29,-43.67,0,*48
1506834440.85,33117,14.38,74140.5,0.79,-43.55,-43.95,0,*48
1506834442.1,33118,14.38,74144.5,0.81,-43.29,-43.67,0,*46
1506834443.34,33119,14.44,74148.0,0.81,-43.41,-43.67,0,*49
1506834444.61,33120,14.38,74146.5,0.79,-43.29,-43.81,0,*42
1506834445.83,33121,14.38,74146.3,0.79,-43.35,-43.87,0,*48
1506834447.08,33122,14.38,74140.0,0.79,-43.55,-43.87,0,*4D
1506834448.3,33123,14.38,74142.3,0.81,-43.41,-43.81,0,*48
1506834449.52,33124,14.38,74148.3,0.79,-43.49,-43.87,0,*46
1506834450.75,33125,14.38,74142.8,0.81,-43.49,-43.81,0,*46
1506834451.97,33126,14.38,74144.3,0.79,-43.49,-43.87,0,*44
1506834453.22,33127,14.38,74146.8,0.79,-43.55,-43.87,0,*48
1506834454.45,33128,14.38,74140.8,0.81,-43.41,-43.67,0,*4B
1506834455.7,33129,14.38,74146.0,0.79,-43.55,-43.87,0,*46
1506834456.9,33130,14.44,74148.5,0.81,-43.61,-43.87,0,*4E
1506834458.13,33131,14.44,74148.8,0.81,-43.49,-43.81,0,*43
1506834459.38,33132,14.38,74146.8,0.79,-43.55,-43.95,0,*4F
1506834460.61,33133,14.38,74146.5,0.79,-43.75,-44.07,0,*40
1506834461.86,33134,14.38,74146.3,0.79,-43.67,-44.07,0,*44
1506834463.08,33135,14.38,74144.5,0.81,-43.49,-43.81,0,*47
1506834464.31,33136,14.38,74146.8,0.81,-43.49,-43.81,0,*44
1506834465.53,33137,14.38,74144.5,0.81,-43.41,-43.81,0,*4D
1506834466.81,33138,14.38,74146.8,0.79,-43.55,-44.01,0,*4F
1506834468.04,33139,14.44,74150.8,0.79,-43.49,-43.95,0,*49
1506834469.27,33140,14.44,74146.0,0.79,-43.49,-43.95,0,*47
1506834470.52,33141,14.38,74140.3,0.79,-43.55,-43.95,0,*4B
1506834471.77,33142,14.38,74146.3,0.79,-43.55,-43.87,0,*4B
1506834472.99,33143,14.38,74142.3,0.81,-43.41,-43.81,0,*4E
1506834474.22,33144,14.38,74144.3,0.79,-43.49,-43.87,0,*40
1506834475.44,33145,14.38,74142.3,0.79,-43.49,-43.87,0,*41
1506834476.69,33146,14.38,74140.5,0.79,-43.55,-44.07,0,*40
1506834477.95,33147,14.38,74146.8,0.79,-43.55,-43.95,0,*4D
1506834479.19,33148,14.44,74146.3,0.79,-43.55,-43.87,0,*41
1506834480.39,33149,14.44,74146.3,0.81,-43.49,-43.87,0,*4A
1506834481.62,33150,14.38,74144.0,0.79,-43.35,-43.75,0,*43
1506834482.84,33151,14.38,74150.0,0.81,-43.49,-43.81,0,*45
1506834484.07,33152,14.44,74150.5,0.81,-43.75,-44.13,0,*45
1506834485.32,33153,14.38,74146.3,0.79,-43.67,-44.07,0,*45
1506834486.55,33154,14.38,74146.5,0.79,-43.49,-43.95,0,*42
1506834487.78,33155,14.44,74148.5,0.79,-43.49,-43.87,0,*40
1506834489.0,33156,14.38,74148.3,0.79,-43.49,-43.87,0,*43
1506834490.22,33157,14.38,74148.5,0.79,-43.49,-43.87,0,*42
1506834491.45,33158,14.38,74148.0,0.79,-43.49,-43.75,0,*40
1506834492.68,33159,14.38,74150.0,0.79,-43.49,-43.87,0,*4C
1506834493.92,33160,14.44,74154.0,0.79,-43.55,-43.87,0,*4B
1506834495.15,33161,14.38,74152.5,0.79,-43.49,-43.75,0,*4A
1506834496.37,33162,14.38,74152.5,0.79,-43.49,-43.87,0,*44
1506834497.62,33163,14.38,74146.8,0.79,-43.55,-43.87,0,*48
1506834498.87,33164,14.44,74152.5,0.79,-43.55,-43.87,0,*4F